Location: *
(40.7873°S, 98.7174°E)
Time: 23:40:42
(UTC+00:00)

Cosmos 1908 - Visible Passes

Search period start: 02 February 2023 00:00
Search period end: 12 February 2023 00:00
Orbit: 499 x 516 km, 82.5° (Epoch: 02 February)

Date Brightness Start Highest point End Pass type
(mag) Time Alt. Az. Time Alt. Az. Time Alt. Az.
02 Feb 3.2 20:20:44 10° S 20:24:35 78° E 20:25:24 52° NNE visible
03 Feb 3.6 20:03:21 10° S 20:07:08 57° E 20:07:28 55° ENE visible
04 Feb 4.2 19:46:01 10° S 19:49:34 42° ESE 19:49:34 42° ESE visible
04 Feb 5.4 21:23:29 10° WSW 21:24:22 11° WSW 21:24:22 11° WSW visible
05 Feb 4.9 19:28:42 10° SSE 19:31:42 31° ESE 19:31:42 31° ESE visible
05 Feb 5.2 21:05:12 10° SW 21:06:31 14° WSW 21:06:31 14° WSW visible
06 Feb 5.4 19:11:27 10° SSE 19:13:52 23° SE 19:13:52 23° SE visible
06 Feb 5.2 20:47:16 10° SW 20:48:41 16° WSW 20:48:41 16° WSW visible
07 Feb 5.8 18:54:16 10° SSE 18:56:04 18° SE 18:56:04 18° SE visible
07 Feb 5.2 20:29:28 10° SW 20:30:53 18° SW 20:30:53 18° SW visible
08 Feb 6.1 18:37:12 10° SE 18:38:17 14° SE 18:38:17 14° SE visible
08 Feb 5.2 20:11:45 10° SSW 20:13:06 19° SW 20:13:06 19° SW visible
09 Feb 6.4 18:20:25 10° SE 18:20:31 10° SE 18:20:31 10° SE visible
09 Feb 5.4 19:54:06 10° SSW 19:55:20 19° SSW 19:55:20 19° SSW visible
10 Feb 5.6 19:36:29 10° SSW 19:37:35 18° SSW 19:37:35 18° SSW visible
11 Feb 5.8 19:18:54 10° S 19:19:51 17° S 19:19:51 17° S visible
